Simultaneous Nadir Overpasses (SNOs) Predictions

Prediction of SNOs between AQUA and GOES-15 Satellite Orbit:

Table of predicted SNOs for the next 14.0 days since TLE Epoch: 5/7/2018
Index Date Time (AQUA) AQUA Lat,Lon GOES-15 Lat,Lon Distance(km) Time Diff (sec)
1 05/09/2018 10:32:29 -0.17,-134.11 0.08,-135.45 151.60 80
2 05/09/2018 22:53:54 -0.87,-139.31 -0.07,-135.47 436.35 80
3 05/11/2018 10:20:17 -0.80,-131.15 0.09,-135.43 485.89 80
4 05/11/2018 22:41:42 -0.24,-136.36 -0.08,-135.45 102.23 80
5 05/13/2018 22:29:29 0.33,-133.39 -0.08,-135.43 231.24 80
6 05/14/2018 10:50:45 0.72,-138.55 0.06,-135.39 359.25 80
7 05/16/2018 10:38:32 0.13,-135.59 0.06,-135.35 27.04 80
8 05/18/2018 10:26:20 -0.51,-132.63 0.06,-135.31 304.50 80
9 05/18/2018 22:47:44 -0.60,-137.82 -0.05,-135.32 284.65 80
10 05/20/2018 22:35:32 0.06,-134.87 -0.05,-135.27 46.21 80




NCC Satellite Simultaneous Nadir Overpasses (SNOs) Prediction Service
